Regional Weather Roundup
Issued by NWS

Home | Current Version | Previous Version | Graphics & Text | Print | Product List | Glossary Off
Versions: 1 2 3 4 5 6 7 8 9 10 11 12 13 14 15 16 17 18 19 20 21 22 23 24 25 26 27 28 29 30 31 32 33 34 35 36 37 38 39 40 41 42 43 44 45 46 47 48 49 50

000
ASUS43 KTOP 271959
RWRKS

WEATHER ROUNDUP FOR KANSAS
NATIONAL WEATHER SERVICE GOODLAND KS
300 PM CDT FRI MAR 27 2015

NOTE:  "FAIR" INDICATES FEW OR NO CLOUDS BELOW 12,000 FEET WITH NO
SIGNIFICANT WEATHER AND/OR OBSTRUCTIONS TO VISIBILITY.

KSZ001>006-013>018-027>032-041>047-272100-
NORTHWEST KANSAS

CITY           SKY/WX    TMP DP  RH WIND       PRES   REMARKS
GOODLAND       MOSUNNY   66  36  32 NW15G22   30.06F
HAYS           CLOUDY    48  27  43 S9        30.17F
HILL CITY      PTSUNNY   50  32  50 SW15      30.14F
RUSSELL        CLOUDY    48  26  42 S8        30.15F
$$

KSZ061>065-074>080-084>089-272100-
SOUTHWEST KANSAS

CITY           SKY/WX    TMP DP  RH WIND       PRES   REMARKS
DODGE CITY     SUNNY     53  32  44 S10G18    30.16F
ELKHART          N/A     62  35  36 SW10        N/A
GARDEN CITY    SUNNY     56  34  43 SW13G22   30.12F
GREAT BEND     CLOUDY    46  27  46 CALM      30.19F
LIBERAL        SUNNY     57  34  41 S15       30.18F
$$

KSZ066>073-081>083-090>101-272100-
SOUTHEAST KANSAS

CITY           SKY/WX    TMP DP  RH WIND       PRES   REMARKS
CHANUTE        SUNNY     48  24  39 N9        30.19F
COFFEYVILLE    SUNNY     50  26  39 N9        30.20F
HUTCHINSON     CLOUDY    47  26  44 S5        30.20F
MEDICINE LODGE   N/A     52  29  41 CALM      30.19F
NEWTON         PTSUNNY   46  25  42 NW12      30.21F
PARSONS        SUNNY     49  25  39 VRB5G18   30.20F
WICHITA INTL   PTSUNNY   48  26  42 VRB3      30.20F
WICHITA JABRA  PTSUNNY   50  26  39 VRB7      30.19F
WINFIELD       MOSUNNY   53  27  36 NW8       30.20F
$$

KSZ007>012-019>026-033>040-048>060-102>105-272100-
NORTHEAST KANSAS

CITY           SKY/WX    TMP DP  RH WIND       PRES   REMARKS
CONCORDIA      CLOUDY    43  20  39 SW5       30.18F
EMPORIA        MOSUNNY   47  20  34 VRB3      30.18F
LAWRENCE       SUNNY     44  19  36 VRB7      30.20F
MANHATTAN      MOSUNNY   47  17  30 NE9       30.18F
OLATHE IND     SUNNY     42  20  41 N7        30.20F
OLATHE EXE     SUNNY     43  19  38 N9        30.18F
SALINA         CLOUDY    47  23  38 W3        30.21F
TOPEKA BILLARD SUNNY     42  20  41 VRB5      30.21F
TOPEKA FORBES  SUNNY     44  20  38 NE5       30.19F
$$



USA.gov is the U.S. government's official web portal to all federal, state and local government web resources and services.